Location: ??????
(55.7522°N, 37.6156°E)
Time: 16:58:46
(UTC+00:00)

NOSS 3-1 (A) - Pass Details

Date: 14 June 2025
Orbit: 639 x 1568 km, 63.4° (Epoch: 21 June)

Event Time Altitude Azimuth Distance (km) Brightness Sun altitude
Rises 19:37:05 0° 304° (WNW) 3,538 7.6 -7.4°
Reaches altitude 10° 19:39:24 10° 307° (NW) 2,711 7.0 -7.5°
Maximum altitude 19:45:52 70° 31° (NNE) 1,211 4.2 -7.9°
Drops below altitude 10° 19:54:02 10° 115° (ESE) 3,390 5.9 -8.3°
Sets 19:57:13 0° 118° (ESE) 4,478 6.5 -8.5°
